Home   Weather   Montréal   Past weeks

Flag for Canada Past Weather in Montréal, Quebec, Canada — Yesterday and Last 2 Weeks

Now
64 °F

Passing clouds.


Feels Like: 64 °F
Forecast: N/A
Wind: 6 mph from Southwest

Location: Montreal - Pierre Elliot Trudeau International Aiport

Current Time: Apr 23, 2018 at 6:53:18 pm

Latest Report: Apr 23, 2018 at 6:00 pm


Visibility: 30 mi

Pressure: 30.30 "Hg

Humidity: 21%

Dew Point: 23 °F

Location of MontréalLocation

Past Weather in Montréal — Graph

°F

Montréal Temperature Yesterday

Maximum temperature yesterday: 57 °F (at 4:00 pm)
Minimum temperature yesterday: 32 °F (at 6:00 am)
Average temperature yesterday: 45 °F

High & Low Weather Summary for the Past Weeks

 TemperatureHumidityPressure
High64 °F (Apr 23, 4:00 pm)100% (Apr 13, 1:00 am)30.58 "Hg (Apr 13, 1:00 am)
Low19 °F (Apr 9, 5:00 am)16% (Apr 22, 7:00 pm)29.48 "Hg (Apr 17, 2:00 pm)
Average37 °F65%30.03 "Hg
* Reported Apr 8 5:00 pm — Apr 23 5:00 pm, Montréal. Weather by CustomWeather, © 2018

Note: Actual official high and low records may vary slightly from our data, if they occured in-between our weather recording intervals... More about our weather records

Advertising

Montréal Weather History for the Previous 24 Hours

Scroll right to see more
 ConditionsComfort  
Time TempWeatherWind HumidityBarometerVisibility
5:00 pm
Mon, Apr 23
64 °FPartly sunny.5 mph16%30.32 "Hg30 mi
4:00 pm64 °FPartly sunny.8 mph18%30.34 "Hg30 mi
3:00 pm63 °FPartly sunny.8 mph17%30.37 "Hg30 mi
2:00 pm61 °FOvercast.8 mph16%30.40 "Hg30 mi
1:00 pm61 °FPartly sunny.9 mph16%30.42 "Hg30 mi
12:00 pm59 °FPartly sunny.9 mph25%30.45 "Hg30 mi
11:00 am54 °FScattered clouds.7 mph33%30.47 "Hg30 mi
10:00 am50 °FScattered clouds.7 mph37%30.48 "Hg30 mi
9:00 am46 °FScattered clouds.7 mph43%30.48 "Hg30 mi
8:00 am43 °FPassing clouds.5 mph46%30.48 "Hg30 mi
7:00 am39 °FPassing clouds.2 mph52%30.47 "Hg30 mi
6:00 am32 °FPassing clouds.No wind75%30.44 "Hg15 mi
5:00 am34 °FPassing clouds.3 mph81%30.42 "Hg15 mi
4:00 am36 °FClear.No wind75%30.41 "Hg15 mi
3:00 am36 °FClear.2 mph75%30.40 "Hg15 mi
2:00 am36 °FClear.2 mph70%30.40 "Hg15 mi
1:53 am36 °FClear.2 mph70%30.40 "Hg15 mi
1:00 am39 °FClear.No wind61%30.40 "Hg15 mi
12:00 am43 °FClear.No wind46%30.39 "Hg15 mi
11:00 pm
Sun, Apr 22
45 °FClear.5 mph34%30.39 "Hg15 mi
10:00 pm46 °FClear.5 mph29%30.39 "Hg15 mi
9:00 pm48 °FClear.6 mph27%30.38 "Hg15 mi
7:00 pm55 °FSunny.7 mph16%30.34 "Hg30 mi
6:00 pm57 °FSunny.6 mph17%30.34 "Hg30 mi
Weather by CustomWeather, © 2018

See weather overview